276015670,2016-06-07T13:35:33.728,-1843.02, 8285162,  39.23, -47.81, 2575577, 2575375, 2575388, 2575503, 2575614,     112,   -0.14,   0.054,    0.21,   16.20,    0.55
276015674,2016-06-07T13:35:49.767,-1826.98, 8201700,  39.39, -47.89, 2575543, 2575316, 2575302, 2575416, 2575578,     120,   -0.36,   0.070,    1.07,   16.98,    0.19
276015675,2016-06-07T13:35:53.727,-1823.02, 8180864,  39.43, -47.93, 2575706, 2575430, 2575380, 2575493, 2575743,     169,   -0.21,   0.039,    0.42,   18.21,    0.38
276015676,2016-06-07T13:35:57.687,-1819.06, 8160418,  39.48, -47.98, 2575470, 2575401, 2575316, 2575429, 2575507,      78,   -0.19,   0.012,   -2.14,   15.31,    2.87
276015677,2016-06-07T13:36:01.848,-1814.90, 8138683,  39.54, -48.04, 2575611, 2575390, 2575289, 2575402, 2575647,     134,    0.04,   0.038,    0.96,   20.47,    0.18
276015678,2016-06-07T13:36:05.808,-1810.94, 8118207,  39.57, -48.10, 2575690, 2575387, 2575310, 2575423, 2575725,     147,   -0.45,   0.079,    1.11,   20.33,    0.08
276015679,2016-06-07T13:36:09.768,-1806.98, 8097552,  39.62, -48.15, 2575669, 2575304, 2575290, 2575403, 2575702,     164,   -0.38,   0.115,    1.34,   20.67,    0.07
276015680,2016-06-07T13:36:13.728,-1803.02, 8076836,  39.66, -48.18, 2575674, 2575369, 2575272, 2575385, 2575707,     160,    0.11,   0.123,    2.53,   24.52,    0.10
276015681,2016-06-07T13:36:17.688,-1799.06, 8056360,  39.71, -48.21, 2575692, 2575389, 2575284, 2575398, 2575724,     147,    0.29,   0.131,    3.20,   23.65,    0.12
276015682,2016-06-07T13:36:21.848,-1794.90, 8034715,  39.75, -48.22, 2575613, 2575307, 2575251, 2575364, 2575645,     126,    0.46,   0.122,    4.12,   28.23,    0.16
276015683,2016-06-07T13:36:25.808,-1790.94, 8014089,  39.80, -48.25, 2575639, 2575405, 2575286, 2575398, 2575671,     186,    0.47,   0.127,    1.29,   22.11,    0.06
276015684,2016-06-07T13:36:29.768,-1786.98, 7993524,  39.85, -48.27, 2575535, 2575317, 2575239, 2575351, 2575568,     128,    0.45,   0.115,    3.38,   25.72,    0.07
276015685,2016-06-07T13:36:33.728,-1783.02, 7972988,  39.90, -48.27, 2575473, 2575359, 2575220, 2575330, 2575506,     169,    1.24,   0.091,    1.66,   23.24,    0.00
276015686,2016-06-07T13:36:37.688,-1779.06, 7952392,  39.95, -48.27, 2575565, 2575284, 2575220, 2575329, 2575599,     157,    0.23,   0.071,   -0.82,   20.55,    0.39
276015687,2016-06-07T13:36:41.847,-1774.90, 7930807,  39.99, -48.27, 2575505, 2575309, 2575214, 2575322, 2575539,     114,    0.63,   0.060,    3.14,   25.56,    0.04
276015688,2016-06-07T13:36:45.807,-1770.94, 7910271,  40.05, -48.28, 2575472, 2575295, 2575263, 2575371, 2575506,      84,   -0.74,   0.055,    2.92,   23.23,    0.00
276015689,2016-06-07T13:36:49.767,-1766.98, 7889736,  40.09, -48.28, 2575510, 2575258, 2575207, 2575314, 2575544,     127,    0.15,   0.072,    1.83,   22.89,    0.13
276015690,2016-06-07T13:36:53.727,-1763.02, 7869170,  40.15, -48.29, 2575471, 2575285, 2575202, 2575309, 2575505,     134,    0.55,   0.080,    1.76,   22.91,    0.08
276015691,2016-06-07T13:36:57.687,-1759.06, 7848604,  40.21, -48.31, 2575497, 2575294, 2575193, 2575301, 2575530,     134,    0.81,   0.090,    3.14,   26.35,    0.05
276015692,2016-06-07T13:37:01.847,-1754.90, 7827049,  40.25, -48.34, 2575451, 2575276, 2575164, 2575271, 2575484,     141,    0.88,   0.088,    1.92,   25.85,    0.00
276015693,2016-06-07T13:37:05.807,-1750.94, 7806513,  40.31, -48.38, 2575403, 2575261, 2575157, 2575264, 2575436,     127,    0.50,   0.077,    1.01,   22.93,    0.15
276015694,2016-06-07T13:37:09.767,-1746.98, 7785947,  40.37, -48.42, 2575368, 2575249, 2575137, 2575242, 2575401,     131,    0.64,   0.066,    1.01,   22.00,    0.21
276015695,2016-06-07T13:37:13.727,-1743.02, 7765502,  40.42, -48.46, 2575375, 2575251, 2575181, 2575287, 2575408,      88,    0.65,   0.066,    2.69,   23.92,    0.02
276015696,2016-06-07T13:37:17.687,-1739.06, 7744936,  40.48, -48.50, 2575462, 2575252, 2575135, 2575240, 2575495,     136,    0.60,   0.065,    3.28,   24.64,    0.09
276015697,2016-06-07T13:37:21.847,-1734.90, 7723381,  40.54, -48.54, 2575417, 2575243, 2575150, 2575255, 2575450,     133,    0.83,   0.069,    3.19,   24.76,    0.11
276015698,2016-06-07T13:37:25.807,-1730.94, 7702875,  40.59, -48.57, 2575394, 2575230, 2575098, 2575203, 2575426,     158,    1.13,   0.077,    2.08,   23.33,    0.10
276015699,2016-06-07T13:37:29.767,-1726.98, 7682369,  40.65, -48.61, 2575315, 2575243, 2575123, 2575227, 2575347,     144,    2.07,   0.087,    2.50,   26.54,    0.08
276015700,2016-06-07T13:37:33.727,-1723.02, 7661983,  40.71, -48.66, 2575362, 2575126, 2575077, 2575181, 2575393,     127,    0.51,   0.104,    1.59,   23.27,    0.15
276015701,2016-06-07T13:37:37.687,-1719.06, 7641447,  40.77, -48.70, 2575346, 2575196, 2575080, 2575184, 2575377,     165,    1.60,   0.122,    3.38,   27.00,    0.04
276015702,2016-06-07T13:37:41.847,-1714.90, 7620012,  40.83, -48.75, 2575320, 2575185, 2575071, 2575176, 2575350,     146,    1.34,   0.143,    4.15,   26.30,    0.00
276015703,2016-06-07T13:37:45.807,-1710.94, 7599357,  40.89, -48.78, 2575299, 2575214, 2575071, 2575176, 2575329,     158,    1.51,   0.148,    3.98,   27.98,    0.09
276015704,2016-06-07T13:37:49.767,-1706.98, 7579031,  40.96, -48.80, 2575284, 2575048, 2574987, 2575092, 2575314,     186,    1.08,   0.145,    2.21,   24.99,    0.09
276015705,2016-06-07T13:37:53.727,-1703.02, 7558555,  41.00, -48.84, 2575281, 2575190, 2575037, 2575142, 2575310,     159,    1.38,   0.162,    4.15,   27.74,    0.04
276015706,2016-06-07T13:37:57.687,-1699.06, 7537989,  41.04, -48.85, 2575260, 2575162, 2575037, 2575141, 2575290,     165,    1.63,   0.154,    4.85,   27.70,    0.04
276015707,2016-06-07T13:38:01.847,-1694.90, 7516494,  41.09, -48.87, 2575240, 2575167, 2575054, 2575157, 2575269,     146,    1.89,   0.152,    4.41,   28.65,    0.12
276015708,2016-06-07T13:38:05.807,-1690.94, 7496078,  41.14, -48.89, 2575245, 2575149, 2575030, 2575132, 2575275,     153,    1.81,   0.144,    3.23,   27.59,    0.10
276015709,2016-06-07T13:38:09.767,-1686.98, 7475572,  41.18, -48.90, 2575233, 2575146, 2574984, 2575087, 2575262,     190,    1.31,   0.144,    3.55,   26.44,    0.02
276015710,2016-06-07T13:38:13.727,-1683.02, 7455096,  41.26, -48.93, 2575196, 2575152, 2575000, 2575101, 2575226,     148,    1.00,   0.129,    3.45,   26.90,    0.04
276015711,2016-06-07T13:38:17.687,-1679.06, 7434771,  41.34, -48.94, 2575180, 2575080, 2574987, 2575087, 2575210,     113,    1.93,   0.106,    4.01,   27.88,    0.09
276015712,2016-06-07T13:38:21.847,-1674.90, 7413245,  41.44, -48.96, 2575179, 2575146, 2575027, 2575125, 2575210,     117,    2.00,   0.077,    5.77,   29.52,    0.03
276015713,2016-06-07T13:38:25.807,-1670.94, 7392770,  41.54, -48.98, 2575151, 2575047, 2574980, 2575077, 2575182,     121,    1.15,   0.053,    1.24,   25.74,    0.33
276015714,2016-06-07T13:38:29.767,-1666.98, 7372354,  41.64, -49.00, 2575143, 2575138, 2575018, 2575115, 2575175,      94,    1.33,   0.052,    5.41,   31.71,    0.06
276015715,2016-06-07T13:38:33.727,-1663.02, 7351938,  41.73, -49.01, 2575134, 2575136, 2575005, 2575102, 2575165,     104,    1.04,   0.060,    4.27,   29.66,    0.00
276015716,2016-06-07T13:38:37.687,-1659.06, 7331552,  41.82, -49.02, 2575122, 2575115, 2574992, 2575089, 2575152,      91,    0.78,   0.082,    6.08,   30.53,    0.01
276015717,2016-06-07T13:38:41.847,-1654.90, 7310117,  41.88, -49.02, 2575113, 2575069, 2574980, 2575077, 2575143,      79,    1.23,   0.084,    4.95,   28.55,    0.09
276015718,2016-06-07T13:38:45.807,-1650.94, 7289701,  41.93, -49.04, 2575098, 2575099, 2574999, 2575095, 2575128,      80,    1.71,   0.081,    6.45,   32.12,    0.15
276015719,2016-06-07T13:38:49.767,-1646.98, 7269315,  41.98, -49.07, 2575103, 2575072, 2574976, 2575072, 2575133,      73,    1.52,   0.073,    6.64,   32.40,    0.14
276015720,2016-06-07T13:38:53.727,-1643.02, 7248929,  42.04, -49.10, 2575084, 2575091, 2574988, 2575083, 2575114,      78,    1.51,   0.066,    5.99,   31.97,    0.14
276015721,2016-06-07T13:38:57.687,-1639.06, 7228573,  42.08, -49.13, 2575093, 2575053, 2574975, 2575069, 2575124,      77,    1.55,   0.048,    6.44,   31.01,    0.12
276015722,2016-06-07T13:39:01.846,-1634.90, 7207138,  42.13, -49.16, 2575081, 2575056, 2574963, 2575057, 2575112,      81,    1.30,   0.042,    6.37,   31.46,    0.09
276015723,2016-06-07T13:39:05.806,-1630.94, 7186812,  42.19, -49.18, 2575087, 2575018, 2574946, 2575040, 2575117,      72,    0.52,   0.049,    4.60,   24.90,    0.02
276015724,2016-06-07T13:39:09.766,-1626.98, 7166456,  42.25, -49.20, 2575076, 2575042, 2574960, 2575054, 2575106,      78,    0.94,   0.055,    6.03,   31.63,    0.02
276015725,2016-06-07T13:39:13.726,-1623.02, 7146010,  42.31, -49.23, 2575086, 2575047, 2574955, 2575048, 2575116,      84,    0.92,   0.053,    6.09,   29.20,    0.02
276015726,2016-06-07T13:39:17.686,-1619.06, 7125714,  42.34, -49.28, 2575072, 2575052, 2574972, 2575064, 2575102,      57,    0.18,   0.036,    5.85,   20.85,    0.01
276015727,2016-06-07T13:39:21.846,-1614.90, 7104309,  42.40, -49.32, 2575079, 2575042, 2574964, 2575056, 2575109,      67,    0.87,   0.032,    7.26,   26.51,    0.07
276015728,2016-06-07T13:39:25.806,-1610.94, 7083893,  42.44, -49.37, 2575084, 2575091, 2574985, 2575076, 2575114,      83,    1.63,   0.056,    6.89,   33.69,    0.10
276015729,2016-06-07T13:39:29.766,-1606.98, 7063627,  42.48, -49.41, 2575088, 2575060, 2574968, 2575060, 2575117,      81,    1.70,   0.082,    6.54,   31.45,    0.12
276015730,2016-06-07T13:39:33.726,-1603.02, 7043272,  42.52, -49.45, 2575083, 2575014, 2574939, 2575031, 2575111,      70,    1.83,   0.103,    7.99,   32.15,    0.19
276015731,2016-06-07T13:39:37.686,-1599.06, 7022946,  42.57, -49.49, 2575069, 2575029, 2574946, 2575039, 2575097,      71,    2.15,   0.128,    7.24,   32.81,    0.23
276015732,2016-06-07T13:39:41.846,-1594.90, 7001600,  42.63, -49.51, 2575062, 2575021, 2574937, 2575030, 2575089,      72,    1.90,   0.127,    7.41,   33.52,    0.22
276015733,2016-06-07T13:39:45.806,-1590.94, 6981274,  42.71, -49.53, 2575060, 2575028, 2574937, 2575028, 2575088,      79,    1.44,   0.111,    7.79,   32.88,    0.13
276015734,2016-06-07T13:39:49.766,-1586.98, 6960979,  42.78, -49.55, 2575058, 2575017, 2574940, 2575030, 2575086,      71,    2.51,   0.110,    9.46,   34.78,    0.21
276015735,2016-06-07T13:39:53.726,-1583.02, 6940623,  42.86, -49.56, 2575054, 2575046, 2574960, 2575050, 2575082,      68,    2.10,   0.089,    9.76,   35.82,    0.19
276015736,2016-06-07T13:39:57.686,-1579.06, 6920387,  42.96, -49.59, 2575049, 2574950, 2574876, 2574964, 2575078,      94,    1.06,   0.063,    4.73,   25.65,    0.03
276015737,2016-06-07T13:40:01.846,-1574.90, 6899071,  43.07, -49.62, 2575032, 2575005, 2574937, 2575025, 2575061,      54,    0.28,   0.027,    6.91,   22.08,    0.00
276015738,2016-06-07T13:40:05.806,-1570.94, 6878715,  43.18, -49.64, 2575039, 2575044, 2574955, 2575043, 2575069,      80,    1.58,   0.014,    7.65,   27.87,    0.12
276015739,2016-06-07T13:40:09.766,-1566.98, 6858569,  43.29, -49.66, 2575046, 2574962, 2574904, 2574992, 2575075,      70,    0.50,   0.047,    6.67,   30.04,    0.03
276015740,2016-06-07T13:40:13.726,-1563.02, 6838243,  43.39, -49.70, 2575045, 2574954, 2574883, 2574970, 2575073,      88,    0.85,   0.071,    3.53,   27.54,    0.07
276015741,2016-06-07T13:40:17.686,-1559.06, 6817948,  43.48, -49.74, 2575064, 2575000, 2574924, 2575011, 2575092,      75,    1.46,   0.086,    7.68,   33.04,    0.13
276015742,2016-06-07T13:40:21.846,-1554.90, 6796692,  43.55, -49.78, 2575050, 2574965, 2574899, 2574986, 2575077,      86,    0.87,   0.084,    5.70,   29.74,    0.01
276015743,2016-06-07T13:40:25.806,-1550.94, 6776336,  43.60, -49.80, 2575075, 2575060, 2574934, 2575020, 2575103,     102,    1.17,   0.067,    6.42,   31.41,    0.01
276015744,2016-06-07T13:40:29.766,-1546.98, 6756100,  43.65, -49.83, 2575055, 2575012, 2574909, 2574994, 2575084,      89,    0.96,   0.050,    6.31,   31.33,    0.03
276015745,2016-06-07T13:40:33.726,-1543.02, 6735864,  43.72, -49.85, 2575087, 2575039, 2574929, 2575014, 2575115,      93,    1.05,   0.045,    6.47,   30.86,    0.03
276015746,2016-06-07T13:40:37.686,-1539.06, 6715658,  43.79, -49.87, 2575088, 2575007, 2574923, 2575008, 2575116,      83,    1.01,   0.047,    5.90,   25.32,    0.06
276015747,2016-06-07T13:40:41.846,-1534.90, 6694403,  43.85, -49.89, 2575058, 2575017, 2574960, 2575045, 2575086,      53,    0.31,   0.044,    7.27,   22.86,    0.09
276015748,2016-06-07T13:40:45.806,-1530.94, 6674137,  43.91, -49.90, 2575103, 2575021, 2574932, 2575016, 2575131,      90,    1.29,   0.056,    6.92,   29.09,    0.11
276015749,2016-06-07T13:40:49.766,-1526.98, 6653931,  43.94, -49.94, 2575110, 2575031, 2574932, 2575016, 2575137,      98,    1.30,   0.052,    7.92,   30.25,    0.09
276015750,2016-06-07T13:40:53.726,-1523.02, 6633695,  43.99, -49.97, 2575101, 2575061, 2574934, 2575017, 2575128,     107,    0.74,   0.059,    6.49,   30.85,    0.02
276015751,2016-06-07T13:40:57.686,-1519.06, 6613519,  44.04, -50.01, 2575092, 2575048, 2574935, 2575018, 2575119,     107,    0.74,   0.067,    5.66,   21.70,    0.04
276015752,2016-06-07T13:41:01.846,-1514.90, 6592384,  44.11, -50.06, 2575112, 2575050, 2574954, 2575037, 2575139,     101,    1.27,   0.072,    7.21,   26.91,    0.12
276015753,2016-06-07T13:41:05.806,-1510.94, 6572028,  44.18, -50.10, 2575140, 2575082, 2574953, 2575036, 2575166,     121,    0.66,   0.077,    5.28,   27.65,    0.04
276015754,2016-06-07T13:41:09.766,-1506.98, 6551852,  44.25, -50.15, 2575145, 2575057, 2574946, 2575028, 2575171,     102,    0.18,   0.087,    6.49,   21.01,    0.14
276015755,2016-06-07T13:41:13.726,-1503.02, 6531886,  44.31, -50.19, 2575149, 2575078, 2574948, 2575031, 2575175,     101,    0.05,   0.104,    5.68,   23.01,    0.17
276015756,2016-06-07T13:41:17.686,-1499.06, 6511500,  44.39, -50.23, 2575191, 2575131, 2574969, 2575051, 2575217,     134,    0.44,   0.106,    5.79,   27.54,    0.14
276015757,2016-06-07T13:41:21.846,-1494.90, 6490334,  44.51, -50.25, 2575219, 2575146, 2575014, 2575095, 2575245,     135,    0.98,   0.077,    2.26,   28.64,    0.11
276015758,2016-06-07T13:41:25.846,-1490.90, 6470038,  44.60, -50.27, 2575217, 2575119, 2574987, 2575067, 2575244,     136,    0.42,   0.056,    3.69,   22.70,    0.13
276015759,2016-06-07T13:41:29.806,-1486.94, 6449832,  44.71, -50.30, 2575214, 2575154, 2575034, 2575113, 2575241,     126,    1.35,   0.030,    4.61,   26.72,    0.03
276015760,2016-06-07T13:41:33.766,-1482.98, 6429626,  44.81, -50.32, 2575301, 2575129, 2575064, 2575144, 2575328,     141,    0.45,   0.014,    1.24,   21.24,    0.85
276015761,2016-06-07T13:41:37.726,-1479.02, 6409480,  44.93, -50.34, 2575320, 2575221, 2575082, 2575161, 2575347,     152,    0.78,   0.045,    4.32,   25.63,    0.14
276015762,2016-06-07T13:41:41.686,-1475.06, 6389394,  45.01, -50.37, 2575265, 2575217, 2575084, 2575163, 2575291,     112,    0.10,   0.043,    3.16,   17.12,    0.37
276015763,2016-06-07T13:41:45.845,-1470.90, 6368259,  45.10, -50.39, 2575368, 2575236, 2575112, 2575190, 2575394,     147,    0.92,   0.052,    4.97,   25.58,    0.05
276015764,2016-06-07T13:41:49.805,-1466.94, 6348203,  45.17, -50.42, 2575343, 2575146, 2575136, 2575214, 2575369,      84,   -0.62,   0.052,    4.71,   20.43,    0.04
276015765,2016-06-07T13:41:53.765,-1462.98, 6328147,  45.26, -50.44, 2575356, 2575266, 2575133, 2575211, 2575382,     130,    0.16,   0.060,    3.07,   17.49,    0.15
276015766,2016-06-07T13:41:57.725,-1459.02, 6308001,  45.31, -50.47, 2575407, 2575224, 2575125, 2575203, 2575433,     151,    0.55,   0.046,    3.12,   20.42,    0.21
276015767,2016-06-07T13:42:01.685,-1455.06, 6287974,  45.37, -50.51, 2575383, 2575180, 2575149, 2575226, 2575409,     146,    0.38,   0.035,    0.74,   16.53,    0.78
276015768,2016-06-07T13:42:05.845,-1450.90, 6266869,  45.43, -50.54, 2575435, 2575172, 2575174, 2575250, 2575461,     146,   -0.22,   0.040,    1.78,   18.64,    0.56
276015769,2016-06-07T13:42:09.805,-1446.94, 6246483,  45.49, -50.56, 2575479, 2575468, 2575261, 2575338, 2575505,     196,    0.80,   0.059,    4.15,   30.12,    0.10
276015770,2016-06-07T13:42:13.765,-1442.98, 6226547,  45.56, -50.60, 2575502, 2575353, 2575228, 2575304, 2575527,     158,    0.61,   0.063,    3.86,   23.50,    0.08
276015771,2016-06-07T13:42:17.725,-1439.02, 6206641,  45.63, -50.65, 2575511, 2575423, 2575275, 2575350, 2575536,     148,    0.63,   0.058,    3.86,   25.56,    0.04
276015772,2016-06-07T13:42:21.685,-1435.06, 6186435,  45.71, -50.70, 2575550, 2575399, 2575228, 2575303, 2575575,     177,    0.51,   0.063,    2.09,   23.16,    0.10
276015773,2016-06-07T13:42:25.845,-1430.90, 6165329,  45.79, -50.74, 2575553, 2575492, 2575312, 2575387, 2575577,     164,    0.67,   0.073,    2.94,   25.78,    0.00
276015774,2016-06-07T13:42:29.805,-1426.94, 6145393,  45.87, -50.78, 2575549, 2575456, 2575300, 2575375, 2575573,     140,    0.49,   0.079,    3.83,   20.65,    0.06
276015775,2016-06-07T13:42:33.765,-1422.98, 6125217,  45.96, -50.82, 2575583, 2575520, 2575322, 2575397, 2575607,     174,    0.39,   0.083,    1.33,   23.74,    0.09
276015776,2016-06-07T13:42:37.725,-1419.02, 6105341,  46.04, -50.86, 2575588, 2575542, 2575365, 2575440, 2575612,     165,    1.05,   0.086,    3.24,   27.78,    0.07
276015777,2016-06-07T13:42:41.685,-1415.06, 6085225,  46.15, -50.89, 2575610, 2575572, 2575416, 2575490, 2575634,     149,    0.99,   0.078,    3.80,   26.64,    0.08
276015778,2016-06-07T13:42:45.845,-1410.90, 6064329,  46.29, -50.94, 2575599, 2575545, 2575404, 2575477, 2575623,     122,    0.25,   0.080,    0.83,   19.98,    0.00
276015779,2016-06-07T13:42:49.805,-1406.94, 6044153,  46.43, -50.98, 2575638, 2575576, 2575366, 2575439, 2575661,     177,    0.38,   0.095,    2.24,   26.35,    0.06
276015780,2016-06-07T13:42:53.765,-1402.98, 6024487,  46.58, -51.01, 2575610, 2575556, 2575351, 2575425, 2575633,     140,   -0.40,   0.123,    2.68,   20.13,    0.12
276015781,2016-06-07T13:42:57.725,-1399.02, 6004611,  46.67, -51.05, 2575644, 2575643, 2575376, 2575450, 2575666,     177,    0.56,   0.134,    2.46,   25.87,    0.11
276015782,2016-06-07T13:43:01.685,-1395.06, 5984614,  46.75, -51.09, 2575619, 2575530, 2575319, 2575393, 2575641,     158,   -0.29,   0.131,    0.65,   17.40,    1.30
276015783,2016-06-07T13:43:05.845,-1390.90, 5963509,  46.80, -51.10, 2575645, 2575370, 2575362, 2575434, 2575668,     216,    1.20,   0.092,    1.74,   25.98,    0.11
276015784,2016-06-07T13:43:09.805,-1386.94, 5943423,  46.86, -51.12, 2575638, 2575585, 2575323, 2575394, 2575662,     247,    1.24,   0.057,   -0.26,   25.56,    0.46
276015786,2016-06-07T13:43:17.725,-1379.02, 5903611,  46.96, -51.16, 2575637, 2575516, 2575259, 2575329, 2575660,     251,    0.65,   0.052,   -2.65,   21.17,    0.94
276015787,2016-06-07T13:43:21.685,-1375.06, 5883794,  47.01, -51.18, 2575635, 2575537, 2575211, 2575281, 2575657,     280,    0.70,   0.090,   -1.51,   21.81,    0.67
276015788,2016-06-07T13:43:25.845,-1370.90, 5862929,  47.07, -51.21, 2575575, 2575459, 2575162, 2575233, 2575597,     293,    0.71,   0.117,   -0.83,   21.90,    0.38
276015789,2016-06-07T13:43:29.805,-1366.94, 5843772,  47.18, -51.24, 2575592, 2575048, 2575098, 2575168, 2575614,     323,    0.17,   0.107,   -1.94,   23.16,    0.88
276015790,2016-06-07T13:43:33.765,-1362.98, 5823536,  47.30, -51.28, 2575483, 2575088, 2575178, 2575247, 2575506,     170,   -0.13,   0.084,   -2.86,   14.72,    1.12
276015791,2016-06-07T13:43:37.725,-1359.02, 5803660,  47.40, -51.30, 2575504, 2575036, 2575014, 2575082, 2575526,     263,   -0.16,   0.076,   -2.44,   17.89,    0.91
276015792,2016-06-07T13:43:41.685,-1355.06, 5784053,  47.51, -51.33, 2575137, 2574788, 2574827, 2574896, 2575159,     145,   -0.76,   0.073,   -1.36,   17.25,    0.51
276015793,2016-06-07T13:43:45.845,-1350.90, 5763008,  47.59, -51.37, 2575044, 2575024, 2574898, 2574967, 2575066,     100,    0.17,   0.084,   -0.62,   15.63,    0.75
276015794,2016-06-07T13:43:49.805,-1346.94, 5743341,  47.67, -51.40, 2575086, 2574816, 2574824, 2574893, 2575108,     112,   -0.88,   0.100,    1.75,   21.09,    0.03
276015795,2016-06-07T13:43:53.765,-1342.98, 5723495,  47.74, -51.43, 2575236, 2574853, 2574827, 2574896, 2575257,     136,   -1.24,   0.124,    4.40,   23.03,    0.10
276015796,2016-06-07T13:43:57.725,-1339.02, 5703649,  47.85, -51.49, 2575072, 2574835, 2574793, 2574860, 2575094,     121,   -0.51,   0.100,    3.09,   21.63,    0.02
276015797,2016-06-07T13:44:01.685,-1335.06, 5683863,  47.97, -51.55, 2575061, 2574840, 2574799, 2574866, 2575083,     100,   -0.57,   0.087,    6.99,   24.08,    0.07
276015798,2016-06-07T13:44:05.845,-1330.90, 5663057,  48.11, -51.61, 2575059, 2574832, 2574777, 2574844, 2575080,      69,   -0.72,   0.090,    9.95,   30.29,    0.25
276015799,2016-06-07T13:44:09.805,-1326.94, 5643241,  48.23, -51.65, 2575061, 2574827, 2574776, 2574843, 2575082,      85,   -0.63,   0.090,    6.35,   26.64,    0.15
276015800,2016-06-07T13:44:13.765,-1322.98, 5623484,  48.35, -51.69, 2575036, 2574836, 2574782, 2574848, 2575057,      68,   -0.29,   0.091,    8.98,   29.68,    0.22
276015801,2016-06-07T13:44:17.725,-1319.02, 5603698,  48.48, -51.72, 2575013, 2574838, 2574784, 2574849, 2575034,      55,   -0.12,   0.083,   10.09,   32.05,    0.24
276015802,2016-06-07T13:44:21.685,-1315.06, 5583942,  48.61, -51.75, 2574993, 2574839, 2574770, 2574835, 2575014,      76,    0.95,   0.086,    9.55,   32.32,    0.14
276015803,2016-06-07T13:44:25.844,-1310.90, 5563196,  48.73, -51.78, 2574951, 2574826, 2574765, 2574830, 2574972,      83,    0.46,   0.082,    8.28,   26.05,    0.05
276015804,2016-06-07T13:44:29.804,-1306.94, 5543500,  48.82, -51.81, 2575102, 2574804, 2574758, 2574823, 2575123,      79,   -0.56,   0.076,    8.44,   28.27,    0.06
276015805,2016-06-07T13:44:33.764,-1302.98, 5523773,  48.92, -51.83, 2574949, 2574800, 2574731, 2574795, 2574970,      84,    0.64,   0.062,    9.27,   28.39,    0.06
276015806,2016-06-07T13:44:37.724,-1299.02, 5504077,  49.04, -51.86, 2574919, 2574756, 2574708, 2574772, 2574940,      82,   -0.38,   0.063,    8.15,   25.01,    0.05
276015807,2016-06-07T13:44:41.684,-1295.06, 5484321,  49.15, -51.88, 2574862, 2574736, 2574717, 2574780, 2574883,      67,   -0.15,   0.062,    8.27,   21.57,    0.21
276015808,2016-06-07T13:44:45.844,-1290.90, 5463725,  49.25, -51.90, 2574932, 2574732, 2574658, 2574721, 2574953,     118,    1.19,   0.061,    8.80,   25.94,    0.01
276015809,2016-06-07T13:44:49.804,-1286.94, 5444059,  49.33, -51.92, 2574778, 2574725, 2574671, 2574734, 2574799,      54,    0.69,   0.051,    9.86,   25.34,    0.03
276015810,2016-06-07T13:44:53.764,-1282.98, 5424392,  49.42, -51.95, 2574806, 2574716, 2574638, 2574700, 2574827,      92,    1.61,   0.050,    9.38,   27.58,    0.01
276015811,2016-06-07T13:44:57.724,-1279.02, 5404696,  49.50, -51.98, 2574793, 2574706, 2574586, 2574648, 2574814,     120,    0.91,   0.052,    8.14,   29.98,    0.14
276015812,2016-06-07T13:45:01.684,-1275.06, 5385149,  49.60, -52.02, 2574746, 2574634, 2574561, 2574622, 2574767,      98,    0.52,   0.054,    8.53,   22.76,    0.25
276015813,2016-06-07T13:45:05.844,-1270.90, 5364464,  49.68, -52.07, 2574754, 2574672, 2574504, 2574565, 2574774,     118,    0.03,   0.048,    7.59,   31.12,    0.69
276015814,2016-06-07T13:45:09.804,-1266.94, 5345067,  49.78, -52.12, 2574662, 2574449, 2574470, 2574531, 2574683,     101,   -0.30,   0.054,    7.98,   21.28,    0.33
276015815,2016-06-07T13:45:13.764,-1262.98, 5325431,  49.87, -52.16, 2574627, 2574447, 2574430, 2574491, 2574648,      74,   -0.85,   0.063,   10.07,   24.15,    0.06